Location: Holbach
(51.5399°N, 10.6036°E)
Time: 10:16:46
(UTC+00:00)

Cosmos 1092 Rocket - Visible Passes

Search period start: 20 January 2021 00:00
Search period end: 30 January 2021 00:00
Orbit: 953 x 996 km, 82.9° (Epoch: 19 January)

Date Brightness Start Highest point End Pass type
(mag) Time Alt. Az. Time Alt. Az. Time Alt. Az.
20 Jan 6.5 03:21:23 10° NNE 03:25:06 16° NE 03:28:49 10° E visible
20 Jan 4.2 05:05:30 10° N 05:11:40 73° ENE 05:17:50 10° SSE visible
20 Jan 5.0 16:57:43 10° SE 17:02:18 22° E 17:06:52 10° NNE visible
20 Jan 4.0 18:40:50 10° SSW 18:47:01 75° WNW 18:53:13 10° N visible
20 Jan 6.4 20:29:42 10° W 20:33:32 17° NW 20:37:23 10° NNW visible
21 Jan 6.0 03:45:49 10° N 03:50:50 25° ENE 03:55:50 10° ESE visible
21 Jan 3.9 05:30:42 10° NNW 05:36:48 70° W 05:42:56 10° S visible
21 Jan 4.4 17:21:31 10° SSE 17:27:04 36° E 17:32:36 10° NNE visible
21 Jan 4.9 19:06:23 10° SW 19:12:19 46° WNW 19:18:15 10° N visible
21 Jan 6.8 20:58:25 10° WNW 20:59:27 10° NW 21:00:29 10° NW visible
22 Jan 5.2 04:10:37 10° N 04:16:22 39° ENE 04:22:06 10° SE visible
22 Jan 4.3 05:56:04 10° NNW 06:01:48 43° W 06:07:32 10° SSW visible
22 Jan 3.9 17:45:57 10° S 17:52:00 59° E 17:58:03 10° NNE visible
22 Jan 5.7 19:32:28 10° SW 19:37:47 29° WNW 19:43:06 10° N visible
23 Jan 6.6 02:51:48 10° NNE 02:54:59 14° NE 02:58:10 10° E visible
23 Jan 4.4 04:35:36 10° N 04:41:43 64° ENE 04:47:50 10° SSE visible
23 Jan 4.9 06:21:40 10° NNW 06:26:37 26° W 06:31:34 10° SW visible
23 Jan 5.2 16:28:21 10° ESE 16:32:31 19° E 16:36:39 10° NE visible
23 Jan 3.9 18:10:54 10° S 18:17:05 86° W 18:23:16 10° N visible
23 Jan 6.3 19:59:11 10° WSW 20:03:26 19° WNW 20:07:42 10° NNW visible
24 Jan 6.1 03:16:03 10° N 03:20:45 22° ENE 03:25:27 10° ESE visible
24 Jan 3.9 05:00:44 10° NNW 05:06:55 81° W 05:13:05 10° S visible
24 Jan 4.6 16:51:56 10° SE 16:57:14 31° E 17:02:33 10° NNE visible
24 Jan 4.7 18:36:19 10° SSW 18:42:20 53° WNW 18:48:22 10° N visible
24 Jan 6.8 20:27:01 10° WNW 20:29:18 12° NW 20:31:34 10° NNW visible
25 Jan 5.4 03:40:46 10° N 03:46:21 35° ENE 03:51:55 10° SE visible
25 Jan 4.1 05:26:03 10° NNW 05:31:56 49° W 05:37:50 10° SSW visible
25 Jan 4.1 17:16:11 10° SSE 17:22:07 51° E 17:28:03 10° NNE visible
25 Jan 5.5 19:02:14 10° SW 19:07:45 33° WNW 19:13:17 10° N visible
26 Jan 6.7 02:22:21 10° NNE 02:24:50 12° NE 02:27:20 10° ENE visible
26 Jan 4.6 04:05:42 10° N 04:11:45 55° ENE 04:17:48 10° SSE visible
26 Jan 4.7 05:51:34 10° NNW 05:56:48 30° W 06:02:03 10° SW visible
26 Jan 3.9 17:40:59 10° S 17:47:09 84° E 17:53:20 10° N visible
26 Jan 6.2 19:28:44 10° WSW 19:33:21 22° WNW 19:37:58 10° NNW visible
27 Jan 6.3 02:46:18 10° NNE 02:50:40 20° ENE 02:55:02 10° ESE visible
27 Jan 3.9 04:30:48 10° N 04:36:59 88° E 04:43:11 10° S visible
27 Jan 5.2 06:17:29 10° NW 06:21:31 18° WNW 06:25:33 10° WSW visible
27 Jan 4.4 18:06:15 10° SSW 18:12:21 61° WNW 18:18:28 10° N visible
27 Jan 6.7 19:56:08 10° W 19:59:08 14° NW 20:02:09 10° NNW visible
28 Jan 5.6 03:10:55 10° N 03:16:19 30° ENE 03:21:42 10° SE visible
28 Jan 4.0 04:56:02 10° NNW 05:02:03 57° W 05:08:06 10° S visible
28 Jan 4.3 16:46:28 10° SSE 16:52:15 44° E 16:58:02 10° NNE visible
28 Jan 5.3 18:32:02 10° SW 18:37:43 38° WNW 18:43:26 10° N visible
29 Jan 6.8 01:53:12 10° NE 01:54:41 11° NE 01:56:09 10° ENE visible
29 Jan 4.8 03:35:48 10° N 03:41:46 48° ENE 03:47:44 10° SSE visible
29 Jan 4.5 05:21:30 10° NNW 05:26:58 35° W 05:32:29 10° SSW visible
29 Jan 3.9 17:11:07 10° S 17:17:14 73° E 17:23:23 10° NNE visible
29 Jan 6.1 18:58:21 10° WSW 19:03:16 24° WNW 19:08:12 10° N visible
